Find Starlink 31449

NORAD ID: 58966 Int'l Des: 2024-031 Owner: SPXS Country: US Constellation: starlink operational
LEOCIRCULAR

現在のビュー

3D地球を読み込み中...

About Starlink 31449

Starlink 31449 (NORAD 58966) is a starlink constellation satellite (v2 mini) launched Feb 15, 2024 by SPXS of US. It operates in LEO, CIRCULAR orbit with a mass of 730.00 kg.

Starlink 31449について

説明を読み込み中...

次回通過

Passes for default location (London). Set your location on the main map for personalized predictions.

高度履歴

Loading altitude history...

軌道要素

1 58966U 24031B 26170.35802711 .00000564 00000-0 31166-4 0 9993
2 58966 53.1595 184.1327 0001276 83.6090 276.5056 15.30190496132108
Epoch: Jun 19, 2026 • Age: 21 hours

現在のステータス

高度 478.3 km
速度 7.63 km/s
衛星直下点 -10.21°S, 12.14°E
打ち上げ日 Feb 15, 2024
運用期間 2.3 years
タイプ internet

技術仕様

分類 Payload
質量 730.00 kg
乾燥質量 700.00 kg
総質量 730.00 kg
長さ 0.30 m
直径 4.10 m
スパン 29.00 m
形状 Box + pan
製造者 SPXS
バスタイプ Starlink V2M
フェーズステータス In Orbit
所有者/国 SPXS/US

Most Searched